Regional Weather Roundup
Issued by NWS

Home | Current Version | Previous Version | Text Only | Print | Product List | Glossary Off
Versions: 1 2 3 4 5 6 7 8 9 10 11 12 13 14 15 16 17 18 19 20 21 22 23 24 25 26 27 28 29 30 31 32 33 34 35 36 37 38 39 40 41 42 43 44 45 46 47 48 49 50

000
ASUS45 KPSR 030200
RWRAZ

ARIZONA HOURLY REGIONAL WEATHER ROUNDUP
NATIONAL WEATHER SERVICE PHOENIX AZ
700 PM MST THU JUL 02 2015

NOTE: FAIR INDICATES FEW OR NO CLOUDS BELOW 12,000 FEET WITH NO
SIGNIFICANT WEATHER AND/OR OBSTRUCTIONS TO VISIBILITY.

AZZ001>003-036-030300-
NORTHWEST ARIZONA

CITY           SKY/WX    TMP DP  RH WIND       PRES   REMARKS
KINGMAN        CLEAR     94  47  20 SW16      29.94S
$$

AZZ004>008-015-016-018-030300-
NORTH CENTRAL ARIZONA

CITY           SKY/WX    TMP DP  RH WIND       PRES   REMARKS
GRAND CANYON   CLOUDY    76  52  43 VRB7      30.19R
WILLIAMS       MOCLDY    72  54  53 NW9G17    30.29R
PRESCOTT       CLEAR     87  52  29 W15       30.06R
FLAGSTAFF      NOT AVBL
PAYSON         PTCLDY    88  52  29 W13G21    30.08R
PAGE           MOCLDY    94  48  20 NW12G17   29.95S
$$

AZZ009>014-017-030300-
NORTHEAST ARIZONA

CITY           SKY/WX    TMP DP  RH WIND       PRES   REMARKS
WINSLOW        NOT AVBL
SAINT JOHNS    CLOUDY    84  52  33 W7        30.07S
WINDOW ROCK    MOCLDY    85  43  22 NW12      30.15
SHOW LOW       CLOUDY    81  45  28 N9        30.16R
$$

AZZ023-030300-
GREATER PHOENIX AREA

CITY           SKY/WX    TMP DP  RH WIND       PRES   REMARKS
PHOENIX        PTCLDY   103  52  18 SW14      29.72S HX 100
GLENDALE       PTCLDY   104  55  20 S12       29.73F HX 103
LUKE AFB       PTCLDY   104  55  20 SW13      29.71S HX 103
DEER VALLEY    PTCLDY   101  53  20 SW14      29.74S
SCOTTSDALE     CLEAR    101  53  20 SW10      29.77S
MESA-FALCON    PTCLDY   102  52  18 SW12      29.75S HX 100
MESA-GATEWAY   MOCLDY   102  57  22 MISG      29.78S HX 101
CHANDLER       MOCLDY   102  54  19 SW15      29.75S HX 100
$$

AZZ027-028-030300-
SOUTHWEST MARICOPA COUNTY AND PINAL COUNTY

CITY           SKY/WX    TMP DP  RH WIND       PRES   REMARKS
CASA GRANDE    PTCLDY    99  54  22 W9        29.77S
GILA BEND      FAIR     103  51  17 W14       29.73S HX 100
$$

AZZ503-504-507>509-030300-
SOUTHEAST ARIZONA

CITY           SKY/WX    TMP DP  RH WIND       PRES   REMARKS
TUCSON         MOCLDY    97  55  24 NW8G20    29.88R
DAVIS-MONTHAN  MOCLDY    95  58  28 NW10      29.87R
RYAN FIELD     CLEAR     99  55  23 W9        29.87R
NOGALES        CLOUDY    88  57  34 W6        29.98R
SIERRA VISTA   CLOUDY    84  55  36 NW9       30.06R
SAFFORD        MOCLDY    93  58  30 MISG      29.87R THUNDER
$$

AZZ020-021-025-026-031-030300-
SOUTHWEST ARIZONA

CITY           SKY/WX    TMP DP  RH WIND       PRES   REMARKS
YUMA           PTCLDY   105  58  21 W6        29.71S HX 105
$$

CAZ031-033-041-043-047-048-061-030300-
SOUTHERN CALIFORNIA

CITY           SKY/WX    TMP DP  RH WIND       PRES   REMARKS
DOWNTOWN L.A.  SUNNY     74  61  63 W3        29.91S
L.A. AIRPORT   MOSUNNY   68  63  84 W13       29.93S
SAN DIEGO      MOSUNNY   73  63  70 NW10      29.93S
BURBANK        SUNNY     80  58  46 S8        29.91R
ONTARIO        SUNNY     86  58  38 W14       29.90S
RIVERSIDE      SUNNY     86  54  33 W10G17    29.90S
PALM SPRINGS   MOSUNNY  102  57  22 NW21G29   29.73F HX 101
EL CENTRO NAS  PTCLDY   105  56  19 W17       29.70S HX 104
IMPERIAL       CLEAR    104  61  24 CALM      29.68S HX 105
BLYTHE         CLEAR    105  60  22 SE7       29.69F HX 106
$$

NVZ020-UTZ003-030300-
SOUTHERN NEVADA-UTAH

CITY           SKY/WX    TMP DP  RH WIND       PRES   REMARKS
LAS VEGAS      NOT AVBL
SALT LAKE CITY MOCLDY    95  45  17 N7        29.96S
$$

NMZ009-TXZ055-030300-
NEW MEXICO-WEST TEXAS

CITY           SKY/WX    TMP DP  RH WIND       PRES   REMARKS
ALBUQUERQUE    CLOUDY    75  58  55 E18       30.13R THUNDER
EL PASO        MOCLDY    97  46  17 SE8       29.88R
$$


........................KEY........................
SKY/WX - SKY CONDITION/WEATHER
TMP    - TEMPERATURE IN FAHRENHEIT
DP     - DEW POINT IN FAHRENHEIT
RH     - RELATIVE HUMIDITY IN PERCENT
WIND   - DIRECTION AND SPEED IN MILES PER HOUR (MPH)
VRB    - VARIABLE WIND DIRECTION
PRES   - MEAN SEA LEVEL PRESSURE IN INCHES OF MERCURY
         F - FALLING PRESSURE   R - RISING PRESSURE
         S - STEADY PRESSURE
VSB    - VISIBILITY IN MILES
HX     - HEAT INDEX IN FAHRENHEIT
WCI    - WIND CHILL INDEX IN FAHRENHEIT
TC     - TEMPERATURE IN CELSIUS WHICH IS ALSO KNOWN AS
         TEMPERATURE IN CENTIGRADE
AFB    - AIR FORCE BASE
         LUKE AFB IS LUKE AIR FORCE BASE
         DAVIS-MONTHAN IS DAVIS-MONTHAN AIR FORCE BASE
NAS    - NAVAL AIR STATION
         EL CENTRO NAS IS EL CENTRO NAVAL AIR STATION
N/A    - NOT AVAILABLE



USA.gov is the U.S. government's official web portal to all federal, state and local government web resources and services.